Weather History for Sitka, AK

Change the Weather History Date:

Friday, December 7, 2012

  Actual Average Record
Temperature  
Mean Temperature 33 °F -  
Max Temperature 36 °F 40 °F 51 °F (1960)
Min Temperature 30 °F 33 °F 3 °F (2005)
Degree Days  
Heating Degree Days 32    
Moisture  
Dew Point 31 °F    
Average Humidity 92    
Maximum Humidity 100    
Minimum Humidity 70    
Precipitation  
Precipitation 0.14 in - - ()
Sea Level Pressure  
Sea Level Pressure 29.84 in    
Wind  
Wind Speed 10 mph (ESE)    
Max Wind Speed 23 mph    
Max Gust Speed 34 mph    
Visibility 6 miles    
Events Rain , Snow    
Averages and records for this station are not official NWS values.
T = Trace of Precipitation, MM = Missing Value Source: NWS Daily Summary

Daily Weather History Graph

Daily Weather History Graph

Search for Another Location

Airport:

Trip Planner

Search our weather history database for the weather conditions in past years. The results will help you decide how hot, cold, wet, or windy it might be!

Date:

Astronomy

Dec. 07, 2012 Rise Set
Actual Time 8:25 AM AKST 3:20 PM AKST
Civil Twilight 7:36 AM AKST 4:09 PM AKST
Nautical Twilight 6:46 AM AKST 4:59 PM AKST
Astronomical Twilight 5:59 AM AKST 5:46 PM AKST
Moon 12:44 AM AKST (12/7) 12:23 PM AKST (12/7)
Length of Visible Light 8h 32m
Length of Day
6h 55m
Last Quarter, 37% of the Moon is Illuminated
Dec 7
Last Quarter
Dec 12
New
Dec 19
First Quarter
Dec 28
Full
Jan 4
Last Quarter

Hourly Weather History & Observations

Time (AKST) Temp. Windchill Dew Point Humidity Pressure Visibility Wind Dir Wind Speed Gust Speed Precip Events Conditions
12:33 AM 35.6 °F 24.5 °F 33.8 °F 93% 29.57 in 10.0 mi SW 20.7 mph 26.5 mph 0.00 in   Overcast
12:53 AM 34.0 °F 21.8 °F 32.0 °F 92% 29.60 in 10.0 mi WSW 23.0 mph 34.5 mph 0.00 in Rain Light Rain
1:00 AM 33.8 °F 22.8 °F 32.0 °F 93% 29.60 in 10.0 mi WSW 18.4 mph 34.5 mph 0.00 in Rain Light Rain
1:09 AM 35.6 °F 25.2 °F 32.0 °F 87% 29.61 in 10.0 mi West 18.4 mph - 0.00 in Snow Light Snow
1:53 AM 36.0 °F 29.0 °F 30.9 °F 82% 29.64 in 10.0 mi WSW 9.2 mph - 0.00 in Snow Light Snow
2:30 AM 33.8 °F 28.6 °F 32.0 °F 93% 29.65 in 8.0 mi North 5.8 mph - 0.00 in Snow Light Snow
3:53 AM 33.1 °F 26.9 °F 30.9 °F 92% 29.68 in 10.0 mi East 6.9 mph - 0.00 in   Mostly Cloudy
4:25 AM 33.8 °F 27.7 °F 30.2 °F 87% 29.69 in 10.0 mi East 6.9 mph - 0.00 in Snow Light Snow
4:37 AM 33.8 °F 25.8 °F 32.0 °F 93% 29.70 in 2.5 mi SE 10.4 mph 19.6 mph 0.01 in Snow Light Snow
4:45 AM 33.8 °F 27.7 °F 32.0 °F 93% 29.70 in 1.0 mi East 6.9 mph - 0.03 in Snow Light Snow
4:53 AM 33.1 °F 27.7 °F 32.0 °F 96% 29.70 in 1.2 mi East 5.8 mph - 0.04 in Snow Light Snow
5:03 AM 33.8 °F 28.6 °F 32.0 °F 93% 29.70 in 2.0 mi East 5.8 mph - 0.01 in Snow Light Snow
5:10 AM 33.8 °F 29.6 °F 32.0 °F 93% 29.71 in 1.2 mi ENE 4.6 mph - 0.03 in Snow Light Snow
5:18 AM 32.0 °F 26.4 °F 32.0 °F 100% 29.71 in 3.0 mi ENE 5.8 mph - 0.03 in Snow Light Snow
5:32 AM 32.0 °F 25.6 °F 30.2 °F 93% 29.71 in 10.0 mi East 6.9 mph - 0.03 in   Scattered Clouds
5:53 AM 32.0 °F 24.2 °F 30.0 °F 92% 29.71 in 10.0 mi ENE 9.2 mph - 0.03 in   Clear
6:53 AM 33.1 °F 27.7 °F 30.0 °F 89% 29.73 in 9.0 mi East 5.8 mph - 0.00 in   Mostly Cloudy
7:53 AM 33.1 °F 24.9 °F 32.0 °F 96% 29.76 in 5.0 mi East 10.4 mph - 0.00 in Snow Light Snow
8:02 AM 33.8 °F 26.4 °F 32.0 °F 93% 29.77 in 3.0 mi East 9.2 mph - 0.00 in Snow Light Snow
8:08 AM 33.8 °F 26.4 °F 32.0 °F 93% 29.77 in 2.5 mi East 9.2 mph - 0.00 in Snow Light Snow
8:19 AM 32.0 °F 24.2 °F 32.0 °F 100% 29.77 in 1.2 mi ENE 9.2 mph - 0.01 in Snow Light Snow
8:34 AM 32.0 °F 24.2 °F 30.2 °F 93% 29.78 in 3.0 mi ENE 9.2 mph - 0.01 in Snow Light Snow
8:39 AM 32.0 °F 24.2 °F 30.2 °F 93% 29.78 in 8.0 mi East 9.2 mph - 0.01 in   Scattered Clouds
8:46 AM 32.0 °F 23.6 °F 30.2 °F 93% 29.78 in 10.0 mi East 10.4 mph - 0.01 in   Scattered Clouds
8:53 AM 32.0 °F 24.2 °F 30.0 °F 92% 29.78 in 10.0 mi East 9.2 mph - 0.01 in   Mostly Cloudy
9:53 AM 32.0 °F 25.6 °F 30.0 °F 92% 29.81 in 10.0 mi East 6.9 mph - N/A   Mostly Cloudy
10:53 AM 35.1 °F 30.1 °F 28.9 °F 78% 29.84 in 10.0 mi East 5.8 mph - N/A   Overcast
11:53 AM 35.1 °F 28.6 °F 28.9 °F 78% 29.86 in 10.0 mi East 8.1 mph - N/A   Mostly Cloudy
12:43 PM 35.6 °F 30.7 °F 26.6 °F 70% 29.89 in 1.0 mi East 5.8 mph - 0.00 in Snow Light Snow
12:50 PM 33.8 °F 27.0 °F 28.4 °F 81% 29.90 in 0.8 mi WSW 8.1 mph - 0.00 in Snow Light Snow
12:51 PM 34.0 °F 26.6 °F 30.0 °F 85% 29.90 in 0.8 mi WSW 9.2 mph - 0.00 in Snow Light Snow
1:00 PM 33.8 °F 27.7 °F 32.0 °F 93% 29.90 in 1.0 mi SSW 6.9 mph - 0.01 in Snow Light Snow
1:07 PM 33.8 °F 27.7 °F 33.8 °F 100% 29.91 in 1.0 mi South 6.9 mph - 0.01 in Snow Light Snow
1:17 PM 33.8 °F 30.8 °F 33.8 °F 100% 29.91 in 0.5 mi SSW 3.5 mph - 0.02 in Snow Heavy Snow
1:29 PM 33.8 °F 28.6 °F 33.8 °F 100% 29.91 in 1.8 mi South 5.8 mph - 0.03 in Snow Heavy Snow
1:34 PM 33.8 °F 29.6 °F 33.8 °F 100% 29.91 in 3.0 mi SE 4.6 mph - 0.03 in Snow Heavy Snow
1:41 PM 33.8 °F 29.6 °F 32.0 °F 93% 29.91 in 2.0 mi ESE 4.6 mph - 0.03 in Snow Light Snow
1:53 PM 33.1 °F 28.7 °F 32.0 °F 96% 29.92 in 3.0 mi East 4.6 mph - 0.03 in Snow Light Snow
2:05 PM 33.8 °F 29.6 °F 32.0 °F 93% 29.92 in 1.8 mi East 4.6 mph - 0.01 in Snow Light Snow
2:15 PM 33.8 °F 29.6 °F 32.0 °F 93% 29.92 in 2.0 mi East 4.6 mph - 0.01 in Snow Light Snow
2:21 PM 33.8 °F 29.6 °F 32.0 °F 93% 29.92 in 4.0 mi ESE 4.6 mph - 0.01 in Snow Light Snow
2:53 PM 34.0 °F 29.8 °F 30.9 °F 89% 29.93 in 10.0 mi ESE 4.6 mph - 0.01 in   Overcast
3:41 PM 33.8 °F 28.6 °F 30.2 °F 87% 29.94 in 10.0 mi ESE 5.8 mph - N/A   Overcast
3:53 PM 35.1 °F 28.6 °F 30.9 °F 85% 29.95 in 10.0 mi SE 8.1 mph - N/A   Overcast
4:47 PM 33.8 °F 27.7 °F 30.2 °F 87% 29.97 in 1.8 mi East 6.9 mph - 0.00 in Snow Light Snow
4:53 PM 33.1 °F 26.9 °F 30.0 °F 89% 29.97 in 1.0 mi East 6.9 mph - 0.01 in Snow Light Snow
5:13 PM 32.0 °F 25.6 °F 30.2 °F 93% 29.98 in 2.0 mi East 6.9 mph - 0.00 in Snow Light Snow
5:36 PM 32.0 °F 23.6 °F 30.2 °F 93% 29.98 in 6.0 mi ESE 10.4 mph - 0.01 in Snow Light Snow
5:53 PM 33.1 °F 25.5 °F 30.9 °F 92% 29.99 in 4.0 mi East 9.2 mph - 0.01 in Snow Light Snow
6:53 PM 33.1 °F 27.7 °F 30.9 °F 92% 30.01 in 10.0 mi East 5.8 mph - 0.00 in   Mostly Cloudy
7:53 PM 30.9 °F 26.2 °F 30.0 °F 96% 30.03 in 10.0 mi East 4.6 mph - N/A   Clear
8:35 PM 30.2 °F - 30.2 °F 100% 30.04 in 10.0 mi Calm Calm - N/A   Mostly Cloudy
8:53 PM 30.9 °F - 30.0 °F 96% 30.05 in 10.0 mi Calm Calm - N/A   Overcast
9:26 PM 30.2 °F - 28.4 °F 93% 30.06 in 10.0 mi Calm Calm - N/A   Partly Cloudy
9:53 PM 30.0 °F - 28.9 °F 96% 30.06 in 10.0 mi Calm Calm - N/A   Clear
10:53 PM 30.9 °F 24.3 °F 28.9 °F 92% 30.07 in 10.0 mi East 6.9 mph - N/A   Clear
11:53 PM 30.0 °F 25.2 °F 28.0 °F 92% 30.09 in 10.0 mi ENE 4.6 mph - N/A   Clear